SCP
0 0 0 0 0 0 0 0 0 0 0 0 0 0 0 0 0 0 0 0 0 0 0 0 0 0 0 0 0 0 0 0 0 0 0 0 0 0 0 0 0 0 0 0 0
0 0 0 0 0 0 0 0 0 0 0 0 0 0 0 0 0 0 0 0 0 0 0 0 0 0 0 0 0 0 0 0 0 0 0 0 0 0 0 0 0 0 0 0 0
0 0 0 0 0 0 0 0 0 0 0 0 0 0 0 0 0 0 0 0 0 0 0 0 0 0 0 0 0 0 0 0 0 0 0 0 0 0 0 0 0 0 0 0 0
0 0 0 0 0 0 0 0 0 0 0 0 0 0 0 0 0 0 0 0 0 0 0 0 0 0 0 0 0 0 0 0 0 0 0 0 0 0 0 0 0 0 0 0 0
0 0 0 0 0 0 0 0 0 0 0 0 0 0 0 0 0 0 0 0 0 0 0 0 0 0 0 0 0 0 0 0 0 0 0 0 0 0 0 0 0 0 0 0 0
0 0 0 0 0 0 0 0 0 0 0 0 0 0 0 0 0 0 0 0 0 0 0 0 0 0 0 0 0 0 0 0 0 0 0 0 0 0 0 0 0 0 0 0 0
0 0 0 0 0 0 0 0 0 0 0 0 0 0 0 0 0 0 0 0 0 0 0 0 0 0 0 0 0 0 0 0 0 0 0 0 0 0 0 0 0 0 0 0 0
0 0 0 0 0 0 0 0 0 0 -0 0 0 0 0 0 0 0 0 0 0 0 0 0 0 0 0 0 0 0 0 0 0 0 0 0 0 0 0 0 0 0 0 0 0
0 0 0 0 0 0 0 0 0 -0 -0 0 0 0 0 0 0 0 0 0 0 0 0 0 0 0 0 0 0 0 0 0 0 0 0 0 0 0 0 0 0 0 0 0 0
0 0 0 0 0 0 0 0 -0 -0 0 0 0 0 0 0 0 0 0 0 0 0 0 0 0 0 0 0 0 0 0 0 0 0 0 0 0 0 0 0 0 0 0 0 0
0 0 0 0 0 0 0 -0 0 0 0 0 0 0 0 0 0 0 0 0 0 0 0 0 0 0 0 0 0 0 0 0 0 0 0 0 0 0 0 0 0 0 0 0 0
0 0 0 0 0 0 -0 -0 -0 0 0 0 0 0 0 0 0 0 0 0 0 0 0 0 0 0 0 0 0 0 0 0 0 0 0 0 0 0 0 0 0 0 0 0 0
0 0 0 0 0 0 0 0 0 -0 -0 0 0 0 0 0 0 0 0 0 0 0 0 0 0 0 0 0 0 0 0 0 0 0 0 0 0 0 0 0 0 0 0 0 0
0 0 0 0 0 0 0 0 -0 -0 -0 0 0 0 0 0 0 0 0 0 0 0 0 0 0 0 0 0 0 0 0 0 0 0 0 0 0 0 0 0 0 0 0 0 0
0 0 0 0 0 0 0 0 0 -0 0 0 0 0 0 0 0 0 0 0 0 0 0 0 0 0 0 0 0 0 0 0 0 0 0 0 0 0 0 0 0 0 0 0 0
0 0 0 0 -0 0 0 0 0 0 0 0 0 0 0 0 0 0 0 0 0 0 0 0 0 0 0 0 0 0 0 0 0 0 0 0 0 0 0 0 0 0 0 0 0
0 0 0 0 0 0 0 0 0 0 0 0 0 0 0 0 0 0 0 0 0 0 0 0 0 0 0 0 0 0 0 0 0 0 0 0 0 0 0 0 0 0 0 0 0
0 0 0 0 0 0 0 0 0 0 0 0 0 0 0 0 0 0 0 0 0 0 0 0 0 0 0 0 0 0 0 0 0 0 0 0 0 0 0 0 0 0 0 0 0
0 0 0 0 0 0 0 0 0 0 0 0 0 0 0 0 -0 0 0 0 0 0 0 0 0 0 0 0 0 0 0 0 0 0 0 0 0 0 0 0 0 0 0 0 0
-0 0 0 0 0 0 0 0 0 0 0 0 0 0 0 0 0 -0 0 0 0 0 0 0 0 0 0 0 0 0 0 0 0 0 0 0 0 0 0 0 0 0 0 0 0
-0 0 0 0 0 0 0 0 0 0 0 0 0 0 0 0 0 0 0 0 0 0 0 0 0 0 0 0 0 0 0 0 0 0 0 0 0 0 0 0 0 0 0 0 0
0 0 0 0 0 0 0 0 0 0 0 0 0 0 0 0 0 0 0 0 0 0 0 0 0 0 0 0 0 0 0 0 0 0 0 0 0 0 0 0 0 0 0 0 0
0 0 0 0 0 0 0 0 0 0 0 0 0 0 0 0 0 0 0 0 0 0 0 0 0 0 0 0 0 0 0 0 0 0 0 0 0 0 0 0 0 0 0 0 0
0 0 0 0 0 0 0 0 0 0 0 0 0 0 0 0 0 0 0 0 0 0 0 0 0 0 0 0 0 0 0 0 0 0 0 0 0 0 0 0 0 0 0 0 0
0 0 0 0 0 0 0 0 0 0 0 0 0 0 0 0 0 0 -0 -0 0 0 0 0 0 0 0 0 0 0 0 0 0 0 0 0 0 0 0 0 0 0 0 0 0
0 0 0 0 0 0 0 0 0 0 0 0 0 0 0 0 0 0 0 0 0 0 0 0 0 0 0 0 0 0 0 0 0 0 0 0 0 0 0 0 0 0 0 0 0
0 0 0 0 0 0 0 0 0 0 0 0 0 0 0 0 0 0 0 0 0 0 0 0 0 0 0 0 0 0 0 0 0 0 0 0 0 0 0 0 0 0 0 0 0
Wind_Speed_500mb
23 23 21 21 20 22 23 24 26 26 26 29 25 22 19 16 16 14 12 8 7 5 3 4 12 19 17 11 8 6 5 8 6 11 5 2 7 3 4 7 9 11 5 8 8
24 24 25 26 25 24 25 26 27 29 31 30 27 24 20 19 19 17 16 11 6 3 5 11 16 22 9 9 5 8 6 8 1 5 5 3 5 6 7 11 16 13 19 16 12
24 23 28 29 27 28 28 26 28 29 29 31 30 26 21 18 18 7 8 12 7 5 8 12 16 15 6 9 10 7 7 4 5 7 6 6 8 8 11 14 23 16 17 23 23
31 24 28 30 30 31 30 32 32 32 31 30 29 27 23 16 6 2 3 5 7 6 8 13 14 9 7 9 8 7 10 7 3 4 4 6 5 11 24 19 10 14 20 21 24
38 31 33 35 35 33 34 35 34 34 33 32 30 26 23 13 13 13 11 9 8 8 11 15 17 11 8 7 8 10 4 6 7 11 13 14 22 20 28 33 27 30 32 30 29
38 39 34 38 39 40 38 35 34 35 36 34 31 25 18 10 16 14 12 11 11 11 13 16 12 13 6 6 9 3 6 12 9 8 9 10 11 2 3 4 11 15 14 18 28
41 44 45 41 42 40 39 38 38 35 34 35 30 25 24 27 21 18 14 12 11 13 13 14 15 14 12 5 4 1 10 10 14 7 9 6 16 21 19 20 17 16 14 15 13
45 44 47 48 46 45 38 36 39 42 42 34 28 24 17 24 20 19 19 15 14 13 13 14 16 13 6 10 3 4 4 7 6 7 5 9 13 7 10 14 16 5 10 14 11
49 43 44 47 50 51 46 41 41 51 47 39 29 15 14 14 18 21 18 16 17 14 14 15 17 8 10 8 5 5 9 11 5 5 5 15 14 5 15 10 18 23 20 23 31
44 46 45 45 49 50 49 45 50 36 25 21 23 12 20 11 12 16 19 17 11 18 13 8 5 6 5 13 12 13 11 9 11 6 6 12 33 23 22 28 32 29 25 22 26
41 46 45 46 40 49 52 40 21 10 13 17 16 15 11 11 11 14 19 20 15 8 10 3 10 20 34 27 4 5 8 15 6 5 6 23 29 44 27 31 35 28 19 18 22
50 51 49 41 41 40 32 18 19 21 27 43 46 48 50 27 9 20 25 18 14 15 12 6 23 26 6 14 14 14 19 16 8 5 6 21 34 43 33 31 22 17 16 16 17
45 47 50 45 35 28 24 22 25 34 14 24 26 19 17 30 16 19 32 17 12 17 23 29 5 6 17 13 19 20 24 13 10 3 5 14 30 24 8 13 10 10 14 16 17
46 43 45 45 17 24 13 20 22 29 9 9 4 4 5 10 8 16 30 12 9 18 14 18 7 13 15 15 23 23 19 14 10 8 10 3 13 16 12 15 12 11 12 15 21
54 46 37 36 33 23 19 14 13 10 12 9 3 1 8 2 4 2 19 9 12 14 13 8 13 18 23 13 23 3 8 12 5 6 6 11 9 9 6 19 21 16 14 20 27
57 52 44 34 24 19 14 11 7 4 16 1 3 2 4 2 1 4 4 3 3 6 7 8 0 6 2 7 2 25 16 11 7 4 12 16 17 31 18 19 22 19 19 25 33
56 54 46 33 19 19 7 6 4 10 9 4 2 5 5 4 5 8 9 15 13 10 18 9 17 8 8 12 10 10 17 6 8 9 17 7 12 35 5 10 21 29 32 32 37
57 55 38 24 21 14 3 2 14 3 10 6 5 5 7 6 2 4 4 12 21 10 4 13 11 24 20 12 16 28 18 12 20 13 8 3 17 11 5 7 15 32 36 36 38
60 52 23 14 17 5 4 10 11 8 9 11 8 9 8 4 9 6 12 10 9 32 18 11 7 3 5 4 8 15 20 3 9 3 5 10 12 21 12 10 19 34 39 41 39
62 37 16 23 15 4 7 13 9 5 10 5 14 9 9 3 12 11 7 7 6 21 15 2 7 2 5 4 4 9 10 9 6 12 16 12 10 14 21 25 27 31 45 45 41
47 19 10 23 18 7 9 11 10 14 17 10 14 17 22 10 11 7 5 7 8 2 12 19 16 7 8 19 23 9 10 10 5 7 8 6 9 4 16 28 36 36 52 51 47
26 10 37 30 4 6 5 8 12 11 24 21 19 24 32 31 20 8 8 8 12 2 10 10 3 12 14 2 3 7 18 15 10 12 9 3 11 3 7 22 34 38 42 45 51
31 14 12 26 7 4 12 20 37 36 27 12 20 23 9 13 14 23 20 7 7 4 2 2 7 8 6 4 3 14 28 25 24 6 23 17 14 9 2 21 30 37 45 54 50
17 8 12 16 10 13 19 21 10 25 31 17 31 33 25 24 24 13 12 7 2 4 5 5 7 13 24 10 7 11 18 31 28 13 18 25 21 3 10 27 28 31 39 43 45
7 7 10 11 13 37 39 30 34 25 24 39 15 29 23 11 13 7 10 15 22 28 11 9 12 10 11 10 6 6 10 28 38 47 20 33 40 26 19 33 42 42 44 42 43
8 9 11 32 27 29 30 34 34 36 34 33 25 28 24 16 22 22 26 20 9 7 12 5 18 5 13 7 15 12 19 24 39 41 42 38 34 9 6 27 25 41 52 55 56
23 26 17 21 22 20 22 28 25 42 24 37 40 24 32 36 19 36 43 40 30 28 26 8 7 8 35 11 10 14 34 31 25 22 37 32 34 20 14 20 39 52 62 71 68
Wind_Direction_500mb
14 11 9 6 1 355 354 354 353 352 353 350 344 334 325 319 308 287 267 244 267 281 232 149 159 155 151 158 153 147 238 230 201 186 119 173 216 195 241 238 207 201 195 172 178
6 5 2 357 351 350 349 346 344 346 346 347 344 337 326 319 308 277 254 244 253 232 185 161 172 160 145 149 166 216 230 224 151 167 182 191 221 189 221 217 234 222 224 221 206
354 358 356 352 347 343 339 338 337 338 339 340 341 337 327 321 309 255 240 233 239 223 190 182 171 163 156 161 183 182 243 168 210 228 240 245 237 211 212 221 233 214 203 220 220
347 359 352 348 344 341 337 334 331 330 331 333 336 332 324 317 279 241 200 222 230 221 201 180 173 172 180 198 182 214 231 236 259 220 219 237 274 248 226 238 222 206 224 227 223
339 348 346 346 343 340 337 334 328 323 323 325 327 327 323 302 268 262 255 243 241 223 205 194 181 178 204 181 166 230 229 208 245 259 263 266 257 266 261 257 252 250 252 245 240
338 334 338 337 335 336 337 332 327 324 322 319 318 314 308 274 265 255 253 248 243 230 211 198 200 198 146 185 219 166 258 261 264 238 251 259 256 253 237 171 204 214 241 246 241
345 339 332 331 328 327 328 331 329 327 324 317 312 305 288 268 250 249 249 241 236 225 220 206 192 178 162 159 205 343 293 266 229 230 233 237 246 230 239 238 254 261 263 235 254
352 354 341 324 324 321 321 318 318 318 317 314 305 296 262 260 246 236 234 225 217 208 203 187 181 173 149 140 88 221 251 259 130 181 198 219 262 146 153 166 169 253 284 255 237
334 340 339 341 326 318 315 316 316 313 305 295 295 280 257 256 238 230 215 210 195 182 172 164 160 143 143 177 218 209 250 216 241 194 197 218 272 155 185 205 265 288 286 268 253
330 334 325 328 335 335 319 315 320 306 297 282 264 270 242 237 226 215 205 190 175 165 145 156 122 166 165 187 214 199 219 227 245 159 205 228 259 251 218 276 278 284 281 267 257
323 324 322 328 325 333 338 339 343 322 320 278 264 257 272 236 225 205 189 177 161 169 193 132 208 212 216 214 253 148 211 236 215 134 259 245 263 273 264 265 271 272 260 258 254
327 325 323 321 322 331 344 29 5 316 303 291 275 259 254 249 244 210 190 184 181 199 134 167 236 236 93 203 206 227 248 245 269 159 247 282 272 275 272 259 254 242 242 244 235
340 332 328 327 326 326 2 16 1 341 276 291 255 252 245 230 233 216 196 193 202 194 200 223 198 151 192 177 196 225 227 226 251 155 236 292 273 243 210 210 218 230 236 229 207
350 347 338 337 349 322 338 343 344 345 286 260 204 268 212 166 225 207 196 205 191 225 188 243 188 181 183 212 202 241 213 213 183 198 249 292 289 263 217 217 220 210 211 196 178
351 351 348 349 331 331 297 319 333 336 289 56 88 144 167 191 101 148 194 205 227 180 179 203 175 191 218 224 187 232 135 157 147 184 338 179 261 230 183 231 218 198 187 174 165
350 353 343 344 335 320 324 313 331 275 244 183 114 140 162 234 110 108 139 184 86 185 240 270 31 216 180 85 204 140 107 81 89 128 248 175 212 261 210 224 187 174 175 166 160
352 349 344 337 341 305 317 318 238 228 357 317 325 181 179 195 213 208 183 184 198 177 218 208 218 162 165 126 131 196 163 166 216 196 247 127 203 257 224 193 184 171 169 164 161
346 349 344 337 343 341 151 177 228 210 271 345 315 271 230 146 127 189 239 241 226 227 168 205 227 181 175 223 190 196 207 214 238 222 243 97 229 247 254 154 162 169 163 160 162
346 351 3 8 358 2 204 212 231 213 320 329 288 247 244 170 193 200 230 231 243 197 209 210 237 141 198 175 169 180 218 108 100 78 270 203 252 261 193 176 176 169 166 167 167
348 355 14 22 349 298 237 245 244 271 330 278 272 245 299 203 207 196 215 180 233 209 256 336 254 170 142 187 214 236 142 175 206 219 232 213 266 247 199 191 178 175 176 171 167
360 356 358 341 343 254 240 256 304 311 337 282 278 277 264 257 225 252 247 211 206 157 186 205 218 128 134 210 194 173 196 228 257 231 253 265 230 189 231 188 181 179 178 175 176
357 332 320 353 327 296 255 288 312 312 322 306 287 276 264 272 278 246 256 261 354 109 182 222 255 242 211 41 313 226 222 189 217 216 243 352 267 115 294 183 174 176 177 181 187
337 295 357 345 304 290 293 295 304 300 291 286 289 299 316 285 269 244 233 237 214 247 276 102 227 230 216 189 197 208 223 235 225 342 222 211 251 14 129 172 176 172 182 186 188
339 318 316 323 293 288 302 299 303 329 327 319 304 279 293 278 270 289 332 323 309 222 268 73 265 246 250 293 125 202 208 206 193 203 222 231 238 203 169 182 184 189 188 183 186
352 291 307 299 326 324 309 298 294 298 294 294 290 302 305 300 323 314 354 353 320 313 239 195 248 251 260 253 249 235 213 204 207 224 220 246 242 255 210 197 201 195 186 188 193
281 297 303 299 310 311 302 295 282 287 281 283 282 307 316 300 294 305 318 319 283 352 343 323 253 182 268 233 240 240 233 220 223 236 241 259 262 266 302 211 202 208 198 200 202
284 279 277 283 289 285 283 289 305 316 289 298 290 304 304 301 312 313 300 283 277 283 291 266 283 205 248 174 172 244 231 224 221 218 224 236 250 231 221 211 216 218 215 212 209
Wind_Speed_850mb
23 23 21 21 20 22 23 24 26 26 26 29 25 22 19 16 16 14 12 8 7 5 3 4 12 19 17 11 8 6 5 8 6 11 5 2 7 3 4 7 9 11 5 8 8
24 24 25 26 25 24 25 26 27 29 31 30 27 24 20 19 19 17 16 11 6 3 5 11 16 22 9 9 5 8 6 8 1 5 5 3 5 6 7 11 16 13 19 16 12
24 23 28 29 27 28 28 26 28 29 29 31 30 26 21 18 18 7 8 12 7 5 8 12 16 15 6 9 10 7 7 4 5 7 6 6 8 8 11 14 23 16 17 23 23
31 24 28 30 30 31 30 32 32 32 31 30 29 27 23 16 6 2 3 5 7 6 8 13 14 9 7 9 8 7 10 7 3 4 4 6 5 11 24 19 10 14 20 21 24
38 31 33 35 35 33 34 35 34 34 33 32 30 26 23 13 13 13 11 9 8 8 11 15 17 11 8 7 8 10 4 6 7 11 13 14 22 20 28 33 27 30 32 30 29
38 39 34 38 39 40 38 35 34 35 36 34 31 25 18 10 16 14 12 11 11 11 13 16 12 13 6 6 9 3 6 12 9 8 9 10 11 2 3 4 11 15 14 18 28
41 44 45 41 42 40 39 38 38 35 34 35 30 25 24 27 21 18 14 12 11 13 13 14 15 14 12 5 4 1 10 10 14 7 9 6 16 21 19 20 17 16 14 15 13
45 44 47 48 46 45 38 36 39 42 42 34 28 24 17 24 20 19 19 15 14 13 13 14 16 13 6 10 3 4 4 7 6 7 5 9 13 7 10 14 16 5 10 14 11
49 43 44 47 50 51 46 41 41 51 47 39 29 15 14 14 18 21 18 16 17 14 14 15 17 8 10 8 5 5 9 11 5 5 5 15 14 5 15 10 18 23 20 23 31
44 46 45 45 49 50 49 45 50 36 25 21 23 12 20 11 12 16 19 17 11 18 13 8 5 6 5 13 12 13 11 9 11 6 6 12 33 23 22 28 32 29 25 22 26
41 46 45 46 40 49 52 40 21 10 13 17 16 15 11 11 11 14 19 20 15 8 10 3 10 20 34 27 4 5 8 15 6 5 6 23 29 44 27 31 35 28 19 18 22
50 51 49 41 41 40 32 18 19 21 27 43 46 48 50 27 9 20 25 18 14 15 12 6 23 26 6 14 14 14 19 16 8 5 6 21 34 43 33 31 22 17 16 16 17
45 47 50 45 35 28 24 22 25 34 14 24 26 19 17 30 16 19 32 17 12 17 23 29 5 6 17 13 19 20 24 13 10 3 5 14 30 24 8 13 10 10 14 16 17
46 43 45 45 17 24 13 20 22 29 9 9 4 4 5 10 8 16 30 12 9 18 14 18 7 13 15 15 23 23 19 14 10 8 10 3 13 16 12 15 12 11 12 15 21
54 46 37 36 33 23 19 14 13 10 12 9 3 1 8 2 4 2 19 9 12 14 13 8 13 18 23 13 23 3 8 12 5 6 6 11 9 9 6 19 21 16 14 20 27
57 52 44 34 24 19 14 11 7 4 16 1 3 2 4 2 1 4 4 3 3 6 7 8 0 6 2 7 2 25 16 11 7 4 12 16 17 31 18 19 22 19 19 25 33
56 54 46 33 19 19 7 6 4 10 9 4 2 5 5 4 5 8 9 15 13 10 18 9 17 8 8 12 10 10 17 6 8 9 17 7 12 35 5 10 21 29 32 32 37
57 55 38 24 21 14 3 2 14 3 10 6 5 5 7 6 2 4 4 12 21 10 4 13 11 24 20 12 16 28 18 12 20 13 8 3 17 11 5 7 15 32 36 36 38
60 52 23 14 17 5 4 10 11 8 9 11 8 9 8 4 9 6 12 10 9 32 18 11 7 3 5 4 8 15 20 3 9 3 5 10 12 21 12 10 19 34 39 41 39
62 37 16 23 15 4 7 13 9 5 10 5 14 9 9 3 12 11 7 7 6 21 15 2 7 2 5 4 4 9 10 9 6 12 16 12 10 14 21 25 27 31 45 45 41
47 19 10 23 18 7 9 11 10 14 17 10 14 17 22 10 11 7 5 7 8 2 12 19 16 7 8 19 23 9 10 10 5 7 8 6 9 4 16 28 36 36 52 51 47
26 10 37 30 4 6 5 8 12 11 24 21 19 24 32 31 20 8 8 8 12 2 10 10 3 12 14 2 3 7 18 15 10 12 9 3 11 3 7 22 34 38 42 45 51
31 14 12 26 7 4 12 20 37 36 27 12 20 23 9 13 14 23 20 7 7 4 2 2 7 8 6 4 3 14 28 25 24 6 23 17 14 9 2 21 30 37 45 54 50
17 8 12 16 10 13 19 21 10 25 31 17 31 33 25 24 24 13 12 7 2 4 5 5 7 13 24 10 7 11 18 31 28 13 18 25 21 3 10 27 28 31 39 43 45
7 7 10 11 13 37 39 30 34 25 24 39 15 29 23 11 13 7 10 15 22 28 11 9 12 10 11 10 6 6 10 28 38 47 20 33 40 26 19 33 42 42 44 42 43
8 9 11 32 27 29 30 34 34 36 34 33 25 28 24 16 22 22 26 20 9 7 12 5 18 5 13 7 15 12 19 24 39 41 42 38 34 9 6 27 25 41 52 55 56
23 26 17 21 22 20 22 28 25 42 24 37 40 24 32 36 19 36 43 40 30 28 26 8 7 8 35 11 10 14 34 31 25 22 37 32 34 20 14 20 39 52 62 71 68
Wind_Direction_850mb
14 11 9 6 1 355 354 354 353 352 353 350 344 334 325 319 308 287 267 244 267 281 232 149 159 155 151 158 153 147 238 230 201 186 119 173 216 195 241 238 207 201 195 172 178
6 5 2 357 351 350 349 346 344 346 346 347 344 337 326 319 308 277 254 244 253 232 185 161 172 160 145 149 166 216 230 224 151 167 182 191 221 189 221 217 234 222 224 221 206
354 358 356 352 347 343 339 338 337 338 339 340 341 337 327 321 309 255 240 233 239 223 190 182 171 163 156 161 183 182 243 168 210 228 240 245 237 211 212 221 233 214 203 220 220
347 359 352 348 344 341 337 334 331 330 331 333 336 332 324 317 279 241 200 222 230 221 201 180 173 172 180 198 182 214 231 236 259 220 219 237 274 248 226 238 222 206 224 227 223
339 348 346 346 343 340 337 334 328 323 323 325 327 327 323 302 268 262 255 243 241 223 205 194 181 178 204 181 166 230 229 208 245 259 263 266 257 266 261 257 252 250 252 245 240
338 334 338 337 335 336 337 332 327 324 322 319 318 314 308 274 265 255 253 248 243 230 211 198 200 198 146 185 219 166 258 261 264 238 251 259 256 253 237 171 204 214 241 246 241
345 339 332 331 328 327 328 331 329 327 324 317 312 305 288 268 250 249 249 241 236 225 220 206 192 178 162 159 205 343 293 266 229 230 233 237 246 230 239 238 254 261 263 235 254
352 354 341 324 324 321 321 318 318 318 317 314 305 296 262 260 246 236 234 225 217 208 203 187 181 173 149 140 88 221 251 259 130 181 198 219 262 146 153 166 169 253 284 255 237
334 340 339 341 326 318 315 316 316 313 305 295 295 280 257 256 238 230 215 210 195 182 172 164 160 143 143 177 218 209 250 216 241 194 197 218 272 155 185 205 265 288 286 268 253
330 334 325 328 335 335 319 315 320 306 297 282 264 270 242 237 226 215 205 190 175 165 145 156 122 166 165 187 214 199 219 227 245 159 205 228 259 251 218 276 278 284 281 267 257
323 324 322 328 325 333 338 339 343 322 320 278 264 257 272 236 225 205 189 177 161 169 193 132 208 212 216 214 253 148 211 236 215 134 259 245 263 273 264 265 271 272 260 258 254
327 325 323 321 322 331 344 29 5 316 303 291 275 259 254 249 244 210 190 184 181 199 134 167 236 236 93 203 206 227 248 245 269 159 247 282 272 275 272 259 254 242 242 244 235
340 332 328 327 326 326 2 16 1 341 276 291 255 252 245 230 233 216 196 193 202 194 200 223 198 151 192 177 196 225 227 226 251 155 236 292 273 243 210 210 218 230 236 229 207
350 347 338 337 349 322 338 343 344 345 286 260 204 268 212 166 225 207 196 205 191 225 188 243 188 181 183 212 202 241 213 213 183 198 249 292 289 263 217 217 220 210 211 196 178
351 351 348 349 331 331 297 319 333 336 289 56 88 144 167 191 101 148 194 205 227 180 179 203 175 191 218 224 187 232 135 157 147 184 338 179 261 230 183 231 218 198 187 174 165
350 353 343 344 335 320 324 313 331 275 244 183 114 140 162 234 110 108 139 184 86 185 240 270 31 216 180 85 204 140 107 81 89 128 248 175 212 261 210 224 187 174 175 166 160
352 349 344 337 341 305 317 318 238 228 357 317 325 181 179 195 213 208 183 184 198 177 218 208 218 162 165 126 131 196 163 166 216 196 247 127 203 257 224 193 184 171 169 164 161
346 349 344 337 343 341 151 177 228 210 271 345 315 271 230 146 127 189 239 241 226 227 168 205 227 181 175 223 190 196 207 214 238 222 243 97 229 247 254 154 162 169 163 160 162
346 351 3 8 358 2 204 212 231 213 320 329 288 247 244 170 193 200 230 231 243 197 209 210 237 141 198 175 169 180 218 108 100 78 270 203 252 261 193 176 176 169 166 167 167
348 355 14 22 349 298 237 245 244 271 330 278 272 245 299 203 207 196 215 180 233 209 256 336 254 170 142 187 214 236 142 175 206 219 232 213 266 247 199 191 178 175 176 171 167
360 356 358 341 343 254 240 256 304 311 337 282 278 277 264 257 225 252 247 211 206 157 186 205 218 128 134 210 194 173 196 228 257 231 253 265 230 189 231 188 181 179 178 175 176
357 332 320 353 327 296 255 288 312 312 322 306 287 276 264 272 278 246 256 261 354 109 182 222 255 242 211 41 313 226 222 189 217 216 243 352 267 115 294 183 174 176 177 181 187
337 295 357 345 304 290 293 295 304 300 291 286 289 299 316 285 269 244 233 237 214 247 276 102 227 230 216 189 197 208 223 235 225 342 222 211 251 14 129 172 176 172 182 186 188
339 318 316 323 293 288 302 299 303 329 327 319 304 279 293 278 270 289 332 323 309 222 268 73 265 246 250 293 125 202 208 206 193 203 222 231 238 203 169 182 184 189 188 183 186
352 291 307 299 326 324 309 298 294 298 294 294 290 302 305 300 323 314 354 353 320 313 239 195 248 251 260 253 249 235 213 204 207 224 220 246 242 255 210 197 201 195 186 188 193
281 297 303 299 310 311 302 295 282 287 281 283 282 307 316 300 294 305 318 319 283 352 343 323 253 182 268 233 240 240 233 220 223 236 241 259 262 266 302 211 202 208 198 200 202
284 279 277 283 289 285 283 289 305 316 289 298 290 304 304 301 312 313 300 283 277 283 291 266 283 205 248 174 172 244 231 224 221 218 224 236 250 231 221 211 216 218 215 212 209